Find Starlink 35653

NORAD ID: 66122 Int'l Des: 2025-237 Owner: SPXS Country: US Constellation: starlink operational
LEOCIRCULAR

Aktuelle Ansicht

3D-Globus wird geladen...

Über Starlink 35653

Beschreibung wird geladen...

Nächste Überflüge

Passes for default location (London). Set your location on the main map for personalized predictions.

Höhenverlauf

Loading altitude history...

Zweizeiliger Elementsatz

1 66122U 25237J 26145.98334384 .00029844 00000-0 10159-2 0 9991
2 66122 53.1597 40.6623 0001163 102.2670 257.8461 15.30194083 34441
Epoch: 25. Mai 2026 • Age: 23 hours

Aktueller Status

Höhe 493.4 km
Geschwindigkeit 7.62 km/s
Subsatellitenpunkt -50.81°S, 103.81°E
Startdatum 22. Okt. 2025
Alter 0.5 years
Typ internet

Technische Details

Klassifizierung Payload
Masse 575.00 kg
Trockenmasse 530.00 kg
Gesamtmasse 575.00 kg
Länge 0.30 m
Durchmesser 4.10 m
Spannweite 29.00 m
Form Box + pan
Hersteller SPXS
Bus-Typ Starlink V2MO
Phasenstatus In Orbit
Besitzer/Staat SPXS/US

Most Searched